STARLINK-1552, 46076

Orbit data source: Space-Track

STARLINK-1552, 46076 is a payload satellite owned by SpaceX/Seattle (US) in LEO that was launched on Fri, 07 Aug 2020 UTC via an FALCON 9 launch vehicle from the Air Force Eastern Test Range (AFETR). Payload-class satellites include a variety of spacecraft equipped with specific instruments for various scientific and technological missions. These include communications satellites like Starlink; space stations such as the ISS; scientific satellites like the Hubble; Earth observation satellites from companies like Planet Labs, Umbra, and HawkEye 360; GPS; miniature CubeSats for education and research; and military/defense satellites.

Loading next visibility...
Identifier
46076, 2020-055BB
Orbit
LEO
Country
Flag of USUS
Related business
Manufacturer
SpaceX/Seattle
Mission
Operational Commercial Communications
Bus & Motor
STARLINK, Unknown motor
Mass
260 kg wet, ~248 kg dry
Launch date (UTC)
2020-08-07 (6 years ago)
Launch vehicle
FALCON 9
Launch site
Air Force Eastern Test Range (AFETR)
Object type
Payload
Rocket body
Debris
Shape & HBR
Box + 1 Pan, 10.1 m
Radar Cross Section
13.562 m², Large (>1 m²)

Expand to show TLE details & history
Last TLE update: 6 hours ago

TLE from 6 hours ago
0 STARLINK-1552
1 46076U 20055BB  26221.82875209  .00002906  00000-0  10534-3 0  9992
2 46076  53.1590 108.6813 0001156  81.2199 278.8934 15.31713779332685
Epoch: 2026-08-09T19:53Z
TLE epoch observation values (Epoch: 2026-08-09T19:53:24.180Z)
Latitude
0.00003°
Longitude
-147.98957°
Altitude
471.477 km
Speed
7.632 km/s
True Right ascension
07h 14m 43s
True Declination
0° 00' 00"
Sunlit
Object was in daylight at epoch
Visualization orbit readout
Latitude
Unknown
Longitude
Unknown
Altitude
Unknown
Speed
Unknown
Apparent Right ascension
Unknown
Apparent Declination
Unknown
Sunlit
N/A
Visualization observer readout
Local Sidereal Time
16:11:14
Azimuth
Unknown
Elevation
Unknown
Doppler factor
Unknown
Orbital elements
Apogee altitude
471.747 km
Perigee altitude
470.164 km
Semi-major axis
6,849.093 km
Eccentricity
0.00012
Inclination
53.159°
RAAN
108.6813°
Arg. of periapsis
81.2199°
True anomaly
278.88031°
Mean anomaly
278.8934°
Eccentric anomaly
278.88686°
Mean motion
3.82907 °/min
Orbital period
94.02 mins
BSTAR
0.00010534
Loading maneuver chart data...
Computing Atmospheric mass density...
Loading historical data...
Loading historical data...
Loading historical data...
Loading historical data...
Loading historical data...
Loading historical data...
Loading historical data...

Documentation

Showing up to 5 results
|